HELIOS 1B (25977 NORAD) Tracking and Keplerian Element Data

This shows tracking and keplerian element data for the satellite.

Feedback or suggestion? Click here.




ElementValue
Catalog25977
NameHELIOS 1B
Epoch Orbit46065
Epoch Day15.75286942
Epoch Year2022
RAAN203.7756
Inclination98.3205
Eccentricity3.29E-05
Argument of Perigee5.9351
Mean Anonmoly354.1865
Mean Motion14.82634454
Decay Rate2.53E-06
L11 25977U 99064A 22015.75286942 .00000253 00000+0 38507-4 0 9997
L22 25977 98.3205 203.7756 0000329 5.9351 354.1865 14.82634454460650

Live tracking and technical data element details for HELIOS 1B (NORAD 25977). HELIOS 1B can be tracked NOW for your location showing map with azimuth and elevation plus other details from your city location.

Track the satellite on the map from your city or location and see movement details for azimuth, elevation, latitude, longitude, range, height, and movement on the map or in text.







IsCatalogInMostPopularTable: catalog: 25977, numindb: 128
Update: records affected: 1



GetName: 25977 HELIOS 1B

Hit Count: updated at: Mon, 17 Jan 2022 01:57:01 GMT